SHT2J EGLL-EGCC

Flight info

Callsign SHT2J
Flight time 0h 35m
Altitude 18000
Route ULTIB T420 ELVOS
Aircraft A319/M-SDE3FGHIRWY/LB1

Departure

Time 2026-05-01 13:52
Airport London Heathrow Airport (EGLL)

Arrival

Time 2026-05-01 14:28
Airport Manchester Airport (EGCC)
Time Latitude Longitude Altitude Speed Heading
2026-05-01 13:28 51.46932 -0.48787 90 ft 0 kts 359°
2026-05-01 13:43 51.46918 -0.48787 91 ft 4 kts
2026-05-01 13:44 51.46892 -0.48796 88 ft 4 kts 32°
2026-05-01 13:44 51.46877 -0.48824 88 ft 3 kts 86°
2026-05-01 13:44 51.46877 -0.48837 86 ft 0 kts 90°
2026-05-01 13:49 51.46876 -0.48789 86 ft 9 kts 97°
2026-05-01 13:49 51.46823 -0.48750 86 ft 10 kts 179°
2026-05-01 13:49 51.46737 -0.48748 86 ft 16 kts 179°
2026-05-01 13:50 51.46612 -0.48759 86 ft 4 kts 195°
2026-05-01 13:50 51.46612 -0.48760 86 ft 0 kts 195°
2026-05-01 13:51 51.46591 -0.48769 87 ft 11 kts 195°
2026-05-01 13:51 51.46503 -0.48770 88 ft 15 kts 152°
2026-05-01 13:51 51.46479 -0.48611 86 ft 17 kts 89°
2026-05-01 13:51 51.46482 -0.48337 87 ft 45 kts 89°
2026-05-01 13:52 51.46481 -0.47519 85 ft 100 kts 90°
2026-05-01 13:52 51.46486 -0.46127 88 ft 149 kts 90°
2026-05-01 13:52 51.46494 -0.44323 446 ft 163 kts 93°
2026-05-01 13:52 51.46586 -0.42536 1037 ft 161 kts 89°
2026-05-01 13:53 51.47024 -0.40859 1618 ft 170 kts 52°
2026-05-01 13:53 51.48593 -0.37864 2722 ft 180 kts 55°
2026-05-01 13:53 51.49388 -0.36291 3279 ft 183 kts 52°
2026-05-01 13:54 51.50191 -0.34687 3879 ft 185 kts 54°
2026-05-01 13:54 51.51015 -0.33012 4344 ft 200 kts 54°
2026-05-01 13:54 51.51833 -0.31109 4813 ft 216 kts 62°
2026-05-01 13:54 51.52628 -0.28960 5326 ft 231 kts 63°
2026-05-01 13:55 51.53374 -0.26584 5869 ft 249 kts 69°
2026-05-01 13:55 51.54306 -0.24014 5986 ft 281 kts 48°
2026-05-01 13:55 51.55994 -0.22393 6007 ft 290 kts 15°
2026-05-01 13:55 51.57998 -0.22108 6011 ft 290 kts 355°
2026-05-01 13:56 51.59988 -0.22549 6009 ft 289 kts 347°
2026-05-01 13:56 51.61879 -0.23608 6089 ft 291 kts 328°
2026-05-01 13:56 51.63542 -0.25454 6966 ft 291 kts 321°
2026-05-01 13:56 51.65225 -0.27291 7862 ft 295 kts 324°
2026-05-01 13:57 51.66986 -0.29032 8754 ft 299 kts 326°
2026-05-01 13:57 51.68798 -0.30743 9634 ft 304 kts 327°
2026-05-01 13:57 51.70642 -0.32461 10464 ft 309 kts 327°
2026-05-01 13:57 51.72563 -0.34263 10821 ft 331 kts 327°
2026-05-01 13:58 51.74611 -0.36205 11182 ft 349 kts 327°
2026-05-01 13:58 51.76720 -0.38225 11852 ft 355 kts 327°
2026-05-01 13:58 51.78856 -0.40284 12583 ft 360 kts 327°
2026-05-01 13:58 51.81020 -0.42380 13313 ft 365 kts 327°
2026-05-01 13:59 51.83206 -0.44504 14034 ft 369 kts 326°
2026-05-01 13:59 51.85423 -0.46659 14672 ft 374 kts 326°
2026-05-01 13:59 51.87662 -0.48835 15314 ft 378 kts 326°
2026-05-01 13:59 51.89968 -0.51082 15525 ft 395 kts 326°
2026-05-01 14:00 51.92342 -0.53396 16009 ft 402 kts 326°
2026-05-01 14:00 51.94753 -0.55743 16583 ft 406 kts 326°
2026-05-01 14:00 51.97186 -0.58114 17187 ft 410 kts 326°
2026-05-01 14:00 51.99642 -0.60512 17794 ft 414 kts 326°
2026-05-01 14:01 52.02118 -0.62930 18091 ft 416 kts 326°
2026-05-01 14:01 52.04600 -0.65358 18165 ft 417 kts 326°
2026-05-01 14:01 52.07082 -0.67795 18137 ft 417 kts 326°
2026-05-01 14:01 52.09561 -0.70238 18139 ft 417 kts 326°
2026-05-01 14:02 52.12037 -0.72685 18139 ft 416 kts 326°
2026-05-01 14:02 52.14513 -0.75130 18139 ft 416 kts 326°
2026-05-01 14:02 52.16990 -0.77574 18138 ft 416 kts 326°
2026-05-01 14:02 52.19445 -0.79996 18137 ft 408 kts 326°
2026-05-01 14:03 52.21865 -0.82391 18141 ft 414 kts 326°
2026-05-01 14:03 52.24366 -0.84869 18138 ft 416 kts 326°
2026-05-01 14:03 52.26809 -0.87287 18139 ft 416 kts 326°
2026-05-01 14:03 52.29319 -0.89774 18140 ft 416 kts 326°
2026-05-01 14:04 52.31792 -0.92233 18143 ft 416 kts 326°
2026-05-01 14:04 52.34264 -0.94696 18149 ft 416 kts 326°
2026-05-01 14:04 52.36706 -0.97132 18149 ft 416 kts 326°
2026-05-01 14:04 52.39177 -0.99599 18172 ft 416 kts 326°
2026-05-01 14:05 52.41644 -1.02064 18160 ft 415 kts 326°
2026-05-01 14:05 52.44101 -1.04527 18165 ft 414 kts 326°
2026-05-01 14:05 52.46554 -1.06992 18168 ft 414 kts 326°
2026-05-01 14:05 52.49008 -1.09461 18170 ft 414 kts 326°
2026-05-01 14:06 52.51463 -1.11934 18168 ft 414 kts 326°
2026-05-01 14:06 52.53918 -1.14408 18178 ft 414 kts 326°
2026-05-01 14:06 52.56374 -1.16882 18179 ft 414 kts 326°
2026-05-01 14:06 52.58832 -1.19358 18180 ft 415 kts 326°
2026-05-01 14:07 52.61291 -1.21841 18181 ft 415 kts 326°
2026-05-01 14:07 52.63752 -1.24327 18185 ft 415 kts 326°
2026-05-01 14:07 52.66210 -1.26814 18187 ft 415 kts 326°
2026-05-01 14:08 52.71125 -1.31807 18189 ft 415 kts 326°
2026-05-01 14:08 52.73582 -1.34304 18134 ft 415 kts 326°
2026-05-01 14:08 52.76041 -1.36802 18141 ft 415 kts 326°
2026-05-01 14:08 52.78504 -1.39310 18139 ft 416 kts 326°
2026-05-01 14:09 52.80960 -1.41821 18134 ft 416 kts 326°
2026-05-01 14:09 52.83420 -1.44341 18132 ft 416 kts 326°
2026-05-01 14:09 52.85879 -1.46863 18132 ft 416 kts 326°
2026-05-01 14:09 52.88341 -1.49393 18006 ft 417 kts 325°
2026-05-01 14:10 52.90800 -1.51927 16992 ft 417 kts 325°
2026-05-01 14:10 52.93221 -1.54424 16339 ft 403 kts 326°
2026-05-01 14:10 52.95580 -1.56854 15507 ft 395 kts 325°
2026-05-01 14:10 52.97898 -1.59241 14640 ft 390 kts 325°
2026-05-01 14:11 53.00199 -1.61611 14083 ft 388 kts 326°
2026-05-01 14:11 53.04748 -1.66388 13099 ft 384 kts 320°
2026-05-01 14:11 53.06645 -1.69362 12669 ft 377 kts 307°
2026-05-01 14:12 53.08338 -1.72664 12246 ft 372 kts 307°
2026-05-01 14:12 53.09979 -1.75853 12089 ft 351 kts 307°
2026-05-01 14:12 53.11518 -1.78829 11958 ft 328 kts 307°
2026-05-01 14:12 53.12979 -1.81656 11562 ft 318 kts 307°
2026-05-01 14:13 53.14411 -1.84438 11030 ft 314 kts 307°
2026-05-01 14:13 53.15367 -1.86298 10656 ft 312 kts 307°
2026-05-01 14:13 53.17220 -1.89910 9929 ft 308 kts 307°
2026-05-01 14:13 53.18607 -1.92616 9350 ft 305 kts 307°
2026-05-01 14:14 53.19979 -1.95299 8777 ft 302 kts 307°
2026-05-01 14:14 53.21327 -1.97929 8426 ft 291 kts 307°
2026-05-01 14:14 53.22610 -2.00427 8230 ft 277 kts 307°
2026-05-01 14:14 53.23845 -2.02842 8002 ft 271 kts 307°
2026-05-01 14:15 53.25063 -2.05223 7790 ft 268 kts 307°
2026-05-01 14:15 53.26503 -2.07261 7573 ft 277 kts 327°
2026-05-01 14:15 53.28302 -2.08441 7350 ft 280 kts 347°
2026-05-01 14:15 53.30237 -2.08700 7131 ft 279 kts 358°
2026-05-01 14:16 53.32168 -2.08798 6913 ft 276 kts 358°
2026-05-01 14:16 53.34074 -2.08831 6689 ft 272 kts
2026-05-01 14:16 53.35800 -2.07807 6556 ft 259 kts 37°
2026-05-01 14:16 53.37098 -2.05849 6417 ft 245 kts 58°
2026-05-01 14:17 53.38027 -2.03441 5894 ft 248 kts 63°
2026-05-01 14:17 53.38869 -2.00924 5418 ft 246 kts 64°
2026-05-01 14:17 53.39682 -1.98418 4968 ft 243 kts 64°
2026-05-01 14:17 53.40477 -1.95944 4565 ft 238 kts 64°
2026-05-01 14:18 53.41248 -1.93551 4254 ft 229 kts 64°
2026-05-01 14:18 53.42020 -1.91279 3947 ft 219 kts 62°
2026-05-01 14:18 53.42811 -1.89146 3666 ft 215 kts 61°
2026-05-01 14:18 53.43339 -1.87755 3558 ft 209 kts 60°
2026-05-01 14:19 53.44404 -1.85207 3483 ft 195 kts 45°
2026-05-01 14:19 53.45629 -1.84308 3508 ft 196 kts
2026-05-01 14:19 53.46875 -1.84873 3519 ft 184 kts 326°
2026-05-01 14:19 53.47796 -1.86237 3510 ft 167 kts 304°
2026-05-01 14:20 53.48315 -1.87879 3497 ft 155 kts 282°
2026-05-01 14:20 53.48600 -1.91337 3519 ft 148 kts 271°
2026-05-01 14:20 53.48693 -1.93039 3508 ft 146 kts 271°
2026-05-01 14:21 53.48781 -1.94737 3507 ft 146 kts 270°
2026-05-01 14:21 53.48866 -1.96442 3510 ft 147 kts 270°
2026-05-01 14:21 53.48944 -1.98145 3501 ft 145 kts 267°
2026-05-01 14:22 53.48131 -2.00920 3507 ft 131 kts 228°
2026-05-01 14:22 53.47565 -2.02109 3512 ft 129 kts 229°
2026-05-01 14:22 53.47003 -2.03286 3496 ft 129 kts 228°
2026-05-01 14:22 53.46442 -2.04460 3406 ft 130 kts 229°
2026-05-01 14:23 53.45881 -2.05633 3275 ft 131 kts 228°
2026-05-01 14:23 53.45288 -2.06871 3125 ft 141 kts 229°
2026-05-01 14:23 53.44683 -2.08135 2930 ft 135 kts 229°
2026-05-01 14:23 53.44107 -2.09338 2767 ft 130 kts 228°
2026-05-01 14:24 53.43546 -2.10508 2586 ft 127 kts 229°
2026-05-01 14:24 53.42988 -2.11672 2419 ft 129 kts 230°
2026-05-01 14:24 53.42429 -2.12838 2249 ft 127 kts 230°
2026-05-01 14:24 53.41868 -2.14005 2085 ft 135 kts 231°
2026-05-01 14:25 53.41271 -2.15247 1891 ft 137 kts 231°
2026-05-01 14:25 53.40678 -2.16482 1701 ft 133 kts 230°
2026-05-01 14:25 53.40106 -2.17672 1532 ft 130 kts 231°
2026-05-01 14:25 53.39553 -2.18822 1362 ft 126 kts 229°
2026-05-01 14:26 53.39000 -2.19971 1202 ft 125 kts 230°
2026-05-01 14:26 53.37907 -2.22241 841 ft 126 kts 231°
2026-05-01 14:26 53.37355 -2.23384 702 ft 126 kts 232°
2026-05-01 14:27 53.36806 -2.24519 486 ft 126 kts 231°
2026-05-01 14:27 53.36257 -2.25641 331 ft 124 kts 233°
2026-05-01 14:27 53.35735 -2.26733 268 ft 109 kts 232°
2026-05-01 14:28 53.35251 -2.27919 246 ft 21 kts 262°
2026-05-01 14:28 53.35234 -2.28098 237 ft 0 kts 261°
2026-05-01 14:28 53.35232 -2.28131 236 ft 0 kts 266°
2026-05-01 14:29 53.35232 -2.28166 237 ft 11 kts 280°
2026-05-01 14:30 53.35334 -2.28192 237 ft 6 kts 20°
2026-05-01 14:30 53.35380 -2.28171 238 ft 8 kts 13°
2026-05-01 14:30 53.35438 -2.28151 238 ft 10 kts 11°
2026-05-01 14:31 53.35583 -2.27989 242 ft 14 kts 51°
2026-05-01 14:31 53.35644 -2.27893 247 ft 12 kts 22°
2026-05-01 14:31 53.35743 -2.27875 247 ft 16 kts
2026-05-01 14:31 53.35777 -2.27870 247 ft 0 kts
2026-05-01 14:37 53.35815 -2.27858 248 ft 9 kts 10°
2026-05-01 14:38 53.35876 -2.27853 247 ft 10 kts
2026-05-01 14:38 53.35945 -2.27842 247 ft 10 kts 358°
2026-05-01 14:38 53.36007 -2.27903 247 ft 12 kts 314°
2026-05-01 14:38 53.36073 -2.28013 247 ft 14 kts 316°
2026-05-01 14:39 53.36154 -2.28145 247 ft 17 kts 315°
2026-05-01 14:39 53.36237 -2.28288 247 ft 17 kts 315°
2026-05-01 14:39 53.36325 -2.28435 247 ft 15 kts 316°
2026-05-01 14:39 53.36417 -2.28495 247 ft 14 kts 339°
2026-05-01 14:40 53.36487 -2.28602 247 ft 14 kts 314°
2026-05-01 14:40 53.36557 -2.28725 247 ft 15 kts 315°
2026-05-01 14:40 53.36647 -2.28769 247 ft 14 kts 13°
2026-05-01 14:40 53.36724 -2.28676 247 ft 13 kts 45°
2026-05-01 14:41 53.36784 -2.28584 247 ft 9 kts 19°
2026-05-01 14:41 53.36818 -2.28626 247 ft 5 kts 315°
2026-05-01 14:41 53.36823 -2.28634 247 ft 0 kts 317°